Time,TemperatureF,DewpointF,PressureIn,WindDirection,WindDirectionDegrees,WindSpeedMPH,WindSpeedGustMPH,Humidity,HourlyPrecipIn,Conditions,Clouds,dailyrainin,SoftwareType,DateUTC
2013-06-11 00:02:00,57.0,-99.9,29.95,WNW,290,2.0,-999.0,-999,-99.99,,,-99.99,,2013-06-11 07:02:00,
2013-06-11 00:03:00,57.0,-99.9,29.95,West,280,4.0,-999.0,-999,-99.99,,,-99.99,,2013-06-11 07:03:00,
2013-06-11 00:52:00,57.0,-99.9,29.95,West,280,4.0,-999.0,-999,-99.99,,,-99.99,,2013-06-11 07:52:00,
2013-06-11 01:52:00,57.0,-99.9,29.96,West,260,4.0,-999.0,-999,-99.99,,,-99.99,,2013-06-11 08:52:00,
2013-06-11 02:02:00,57.0,-99.9,29.96,West,260,4.0,-999.0,-999,-99.99,,,-99.99,,2013-06-11 09:02:00,
2013-06-11 02:03:00,57.0,-99.9,29.96,West,270,7.0,-999.0,-999,-99.99,,,-99.99,,2013-06-11 09:03:00,
2013-06-11 02:53:00,57.0,-99.9,29.96,West,270,7.0,-999.0,-999,-99.99,,,-99.99,,2013-06-11 09:53:00,
2013-06-11 03:52:00,57.0,-99.9,29.94,West,280,4.0,-999.0,-999,-99.99,,,-99.99,,2013-06-11 10:52:00,
2013-06-11 04:02:00,57.0,-99.9,29.94,West,280,4.0,-999.0,-999,-99.99,,,-99.99,,2013-06-11 11:02:00,
2013-06-11 05:02:00,56.0,-99.9,29.94,North,10,4.0,-999.0,-999,-99.99,,,-99.99,,2013-06-11 12:02:00,
2013-06-11 05:52:00,56.0,-99.9,29.94,North,360,7.0,-999.0,-999,-99.99,,,-99.99,,2013-06-11 12:52:00,
2013-06-11 06:02:00,56.0,-99.9,29.94,North,360,7.0,-999.0,-999,-99.99,,,-99.99,,2013-06-11 13:02:00,
2013-06-11 06:52:00,56.0,-99.9,29.95,NNW,340,7.0,-999.0,-999,-99.99,,,-99.99,,2013-06-11 13:52:00,
2013-06-11 07:02:00,56.0,-99.9,29.95,NNW,340,7.0,-999.0,-999,-99.99,,,-99.99,,2013-06-11 14:02:00,
2013-06-11 08:03:00,56.0,-99.9,29.98,NNW,340,7.0,-999.0,-999,-99.99,,,-99.99,,2013-06-11 15:03:00,
2013-06-11 08:53:00,56.0,-99.9,29.98,NNW,340,7.0,-999.0,-999,-99.99,,,-99.99,,2013-06-11 15:53:00,
2013-06-11 09:53:00,56.0,-99.9,29.99,NNW,340,7.0,-999.0,-999,-99.99,,,-99.99,,2013-06-11 16:53:00,
2013-06-11 10:02:00,56.0,-99.9,29.99,NNW,340,7.0,-999.0,-999,-99.99,,,-99.99,,2013-06-11 17:02:00,
2013-06-11 11:02:00,56.0,-99.9,29.99,North,350,9.0,-999.0,-999,-99.99,,,-99.99,,2013-06-11 18:02:00,
2013-06-11 11:03:00,55.0,-99.9,29.99,NNW,340,13.0,-999.0,-999,-99.99,,,-99.99,,2013-06-11 18:03:00,
2013-06-11 11:53:00,55.0,-99.9,29.99,NNW,340,13.0,-999.0,-999,-99.99,,,-99.99,,2013-06-11 18:53:00,
2013-06-11 12:03:00,55.0,-99.9,29.99,NNW,330,13.0,-999.0,-999,-99.99,,,-99.99,,2013-06-11 19:03:00,
2013-06-11 12:53:00,55.0,-99.9,29.99,NNW,330,13.0,-999.0,-999,-99.99,,,-99.99,,2013-06-11 19:53:00,
2013-06-11 13:52:00,55.0,-99.9,29.99,NW,310,11.0,-999.0,-999,-99.99,,,-99.99,,2013-06-11 20:52:00,
2013-06-11 14:02:00,55.0,-99.9,29.99,NW,310,11.0,-999.0,-999,-99.99,,,-99.99,,2013-06-11 21:02:00,
2013-06-11 14:03:00,56.0,-99.9,29.98,NW,320,11.0,-999.0,-999,-99.99,,,-99.99,,2013-06-11 21:03:00,
2013-06-11 14:53:00,56.0,-99.9,29.98,NW,320,11.0,-999.0,-999,-99.99,,,-99.99,,2013-06-11 21:53:00,
2013-06-11 15:52:00,56.0,-99.9,29.97,NW,320,13.0,-999.0,-999,-99.99,,,-99.99,,2013-06-11 22:52:00,
2013-06-11 16:02:00,56.0,-99.9,29.97,NW,320,13.0,-999.0,-999,-99.99,,,-99.99,,2013-06-11 23:02:00,
2013-06-11 16:52:00,56.0,-99.9,29.96,NW,320,16.0,-999.0,-999,-99.99,,,-99.99,,2013-06-11 23:52:00,
2013-06-11 17:02:00,56.0,-99.9,29.96,NW,320,16.0,-999.0,-999,-99.99,,,-99.99,,2013-06-12 00:02:00,
2013-06-11 18:52:00,56.0,-99.9,29.92,NW,320,18.0,-999.0,-999,-99.99,,,-99.99,,2013-06-12 01:52:00,
2013-06-11 19:02:00,56.0,-99.9,29.92,NW,320,18.0,-999.0,-999,-99.99,,,-99.99,,2013-06-12 02:02:00,
2013-06-11 19:52:00,56.0,-99.9,29.92,NW,320,16.0,-999.0,-999,-99.99,,,-99.99,,2013-06-12 02:52:00,
2013-06-11 20:02:00,56.0,-99.9,29.92,NW,320,16.0,-999.0,-999,-99.99,,,-99.99,,2013-06-12 03:02:00,
2013-06-11 20:03:00,56.0,-99.9,29.91,NNW,330,16.0,-999.0,-999,-99.99,,,-99.99,,2013-06-12 03:03:00,
2013-06-11 20:54:00,56.0,-99.9,29.91,NNW,330,16.0,-999.0,-999,-99.99,,,-99.99,,2013-06-12 03:54:00,
2013-06-11 21:03:00,56.0,-99.9,29.90,NNW,340,16.0,-999.0,-999,-99.99,,,-99.99,,2013-06-12 04:03:00,
2013-06-11 21:53:00,56.0,-99.9,29.90,NNW,340,16.0,-999.0,-999,-99.99,,,-99.99,,2013-06-12 04:53:00,
2013-06-11 22:52:00,56.0,-99.9,29.91,North,350,13.0,-999.0,-999,-99.99,,,-99.99,,2013-06-12 05:52:00,
2013-06-11 23:02:00,56.0,-99.9,29.91,North,350,13.0,-999.0,-999,-99.99,,,-99.99,,2013-06-12 06:02:00,
2013-06-11 23:52:00,56.0,-99.9,29.93,North,360,11.0,-999.0,-999,-99.99,,,-99.99,,2013-06-12 06:52:00,